Somerville, NJ

1:17 PM EDT on April 30, 2017 (GMT -0400)
Somerset

Weather History for KSMQ - January, 2012

Change the Weather History Date:

Wednesday, January 18, 2012

  Actual Average Record
Temperature  
Mean Temperature 38 °F -  
Max Temperature 52 °F 34 °F 63 °F (2006)
Min Temperature 19 °F 15 °F -12 °F (1982)
Degree Days  
Heating Degree Days 27    
Moisture  
Dew Point 16 °F    
Average Humidity 45    
Maximum Humidity 80    
Minimum Humidity 32    
Precipitation  
Precipitation 0.00 in - - ()
Sea Level Pressure  
Sea Level Pressure 29.94 in    
Wind  
Wind Speed 10 mph (NW)    
Max Wind Speed 21 mph    
Max Gust Speed 33 mph    
Visibility 10 miles    
Events      
Averages and records for this station are not official NWS values.
T = Trace of Precipitation, MM = Missing Value Source: NWS Daily Summary

Daily Weather History Graph

Daily Weather History Graph

Search for Another Location

Airport or City:

Trip Planner

Search our weather history database for the weather conditions in past years. The results will help you decide how hot, cold, wet, or windy it might be!

Date:

Astronomy

Jan. 18, 2012 Rise Set
Actual Time 7:19 AM EST 4:59 PM EST
Civil Twilight 6:49 AM EST 5:28 PM EST
Nautical Twilight 6:15 AM EST 6:02 PM EST
Astronomical Twilight 5:43 AM EST 6:35 PM EST
Moon 2:46 AM EST (1/18) 12:35 PM EST (1/18)
Length of Visible Light 10h 39m
Length of Day
9h 39m
Waning Crescent, 25% of the Moon is Illuminated
Jan 18
Waning Crescent
Jan 23
New
Jan 30
First Quarter
Feb 7
Full
Feb 14
Last Quarter

Hourly Weather History & Observations

Time (EST) Temp. Windchill Dew Point Humidity Pressure Visibility Wind Dir Wind Speed Gust Speed Precip Events Conditions
12:53 AM 51.1 °F - 45.0 °F 80% 29.57 in 10.0 mi SSW 4.6 mph - N/A   Mostly Cloudy
1:53 AM 52.0 °F - 37.9 °F 59% 29.61 in 10.0 mi WNW 12.7 mph 25.3 mph N/A   Overcast
2:53 AM 46.9 °F - 27.0 °F 46% 29.68 in 10.0 mi West 10.4 mph 33.4 mph N/A   Partly Cloudy
3:53 AM 44.1 °F 38.1 °F 27.0 °F 51% 29.72 in 10.0 mi WNW 11.5 mph 27.6 mph N/A   Partly Cloudy
4:53 AM 42.1 °F 36.1 °F 24.1 °F 49% 29.75 in 10.0 mi WNW 10.4 mph 24.2 mph N/A   Clear
5:53 AM 41.0 °F 34.7 °F 23.0 °F 49% 29.78 in 10.0 mi WNW 10.4 mph 21.9 mph N/A   Clear
6:53 AM 39.0 °F 31.8 °F 21.0 °F 49% 29.81 in 10.0 mi WNW 11.5 mph 21.9 mph N/A   Scattered Clouds
7:53 AM 37.9 °F 32.7 °F 19.9 °F 48% 29.84 in 10.0 mi Variable 6.9 mph - N/A   Partly Cloudy
8:53 AM 39.0 °F 32.3 °F 18.0 °F 43% 29.90 in 10.0 mi WNW 10.4 mph 27.6 mph N/A   Mostly Cloudy
9:53 AM 37.9 °F 28.9 °F 17.1 °F 43% 29.94 in 10.0 mi NW 16.1 mph 29.9 mph N/A   Scattered Clouds
10:53 AM 37.9 °F 28.9 °F 15.1 °F 39% 29.96 in 10.0 mi NW 16.1 mph 27.6 mph N/A   Partly Cloudy
11:53 AM 39.9 °F 31.4 °F 15.1 °F 36% 29.96 in 10.0 mi WNW 16.1 mph 25.3 mph N/A   Scattered Clouds
12:53 PM 39.0 °F 30.3 °F 12.9 °F 34% 29.97 in 10.0 mi NNW 16.1 mph 32.2 mph N/A   Partly Cloudy
1:53 PM 37.9 °F 29.2 °F 10.0 °F 32% 29.99 in 10.0 mi NW 15.0 mph 28.8 mph N/A   Clear
2:53 PM 36.0 °F 25.0 °F 9.0 °F 33% 30.00 in 10.0 mi NNW 20.7 mph 28.8 mph N/A   Clear
3:53 PM 34.0 °F 23.8 °F 7.0 °F 32% 30.04 in 10.0 mi NW 16.1 mph 32.2 mph N/A   Clear
4:53 PM 32.0 °F 24.8 °F 8.1 °F 37% 30.06 in 10.0 mi North 8.1 mph - N/A   Clear
5:53 PM 30.0 °F 23.2 °F 8.1 °F 40% 30.11 in 10.0 mi NW 6.9 mph - N/A   Clear
6:53 PM 28.0 °F 21.7 °F 8.1 °F 43% 30.14 in 10.0 mi NNW 5.8 mph - N/A   Clear
7:53 PM 27.0 °F 17.3 °F 8.1 °F 45% 30.16 in 10.0 mi North 10.4 mph 19.6 mph N/A   Clear
8:53 PM 26.1 °F 16.8 °F 7.0 °F 44% 30.17 in 10.0 mi NNW 9.2 mph - N/A   Clear
9:53 PM 24.1 °F 17.0 °F 7.0 °F 48% 30.16 in 10.0 mi NNW 5.8 mph - N/A   Clear
10:53 PM 24.1 °F 18.2 °F 7.0 °F 48% 30.17 in 10.0 mi North 4.6 mph - N/A   Clear
11:53 PM 19.9 °F - 8.1 °F 60% 30.19 in 10.0 mi Calm Calm - N/A   Clear